Location: Schommer Observatory
(40.5200°N, 74.4500°W)
Time: 01:55:27
(UTC-04:00)

Vanguard 3 - All Passes

Search period start: 24 September 2018 00:00
Search period end: 04 October 2018 00:00
Orbit: 508 x 3264 km, 33.3° (Epoch: 23 September)

Date Brightness Start Highest point End Pass type
(mag) Time Alt. Az. Time Alt. Az. Time Alt. Az.
24 Sep - 01:20:38 10° W 01:29:04 46° S 01:34:04 10° ESE night (unlit)
24 Sep - 03:36:00 10° WSW 03:39:50 18° SSW 03:42:50 10° SSE night (unlit)
24 Sep - 19:36:31 10° SSW 19:48:22 23° SSE 19:57:13 10° ESE visible
24 Sep - 21:48:38 10° SW 22:02:16 42° SSE 22:10:29 10° E visible
25 Sep - 00:04:16 10° WSW 00:15:11 52° S 00:21:20 10° ESE visible
25 Sep - 02:20:02 10° W 02:26:42 33° SSW 02:31:02 10° SE night (unlit)
25 Sep - 18:24:13 10° S 18:32:59 15° SE 18:40:26 10° ESE daylight
25 Sep - 20:32:45 10° SSW 20:47:12 35° SSE 20:56:42 10° E visible
25 Sep - 22:47:33 10° WSW 23:00:50 52° S 23:08:22 10° E visible
26 Sep - 01:03:49 10° W 01:13:12 47° SSW 01:18:40 10° ESE visible
26 Sep - 03:19:53 10° WSW 03:23:56 18° SW 03:27:03 10° S night (unlit)
26 Sep - 19:17:51 10° SSW 19:31:49 28° SSE 19:42:05 10° E visible
26 Sep - 21:30:53 10° SW 21:45:59 48° SSE 21:55:02 10° E visible
26 Sep - 23:47:08 10° WSW 23:59:11 55° S 00:05:56 10° ESE visible
27 Sep - 02:03:27 10° W 02:10:50 33° SSW 02:15:31 10° SE night (unlit)
27 Sep - 18:04:39 10° S 18:16:16 20° SE 18:25:57 10° ESE daylight
27 Sep - 20:14:42 10° SW 20:30:42 41° SSE 20:41:14 10° E visible
27 Sep - 22:30:07 10° WSW 22:44:39 57° S 22:52:53 10° E visible
28 Sep - 00:46:54 10° W 00:57:16 48° SSW 01:03:12 10° ESE visible
28 Sep - 03:03:42 10° WSW 03:07:58 17° SW 03:11:14 10° S night (unlit)
28 Sep - 16:55:49 10° SSE 17:00:45 11° SE 17:05:28 10° ESE daylight
28 Sep - 18:59:29 10° SSW 19:15:06 33° SSE 19:26:40 10° E visible
28 Sep - 21:13:12 10° SW 21:29:35 53° SSE 21:39:29 10° E visible
28 Sep - 23:29:55 10° W 23:43:07 58° S 23:50:28 10° ESE visible
29 Sep - 01:46:47 10° W 01:54:52 32° SSW 01:59:57 10° SSE night (unlit)
29 Sep - 17:45:46 10° S 17:59:25 24° SE 18:10:50 10° E daylight
29 Sep - 19:56:48 10° SW 20:14:04 46° SSE 20:25:37 10° E visible
29 Sep - 22:12:40 10° WSW 22:28:22 60° S 22:37:22 10° E visible
30 Sep - 00:29:53 10° W 00:41:14 48° SSW 00:47:43 10° SE visible
30 Sep - 02:47:26 10° WSW 02:51:54 16° SW 02:55:20 10° S night (unlit)
30 Sep - 16:34:50 10° SSE 16:43:51 15° SE 16:52:16 10° ESE daylight
30 Sep - 18:41:23 10° SSW 18:58:15 37° SSE 19:11:01 10° E visible
30 Sep - 20:55:34 10° WSW 21:13:04 57° SSE 21:23:52 10° E visible
30 Sep - 23:12:38 10° W 23:26:57 59° S 23:34:57 10° ESE visible
01 Oct - 01:29:58 10° W 01:38:48 31° SSW 01:44:19 10° SSE visible
01 Oct - 17:27:22 10° SSW 17:42:24 28° SE 17:55:19 10° E daylight
01 Oct - 19:39:04 10° SW 19:57:17 51° SSE 20:09:52 10° E visible
01 Oct - 21:55:14 10° WSW 22:11:59 63° S 22:21:46 10° ESE visible
02 Oct - 00:12:45 10° W 00:25:05 47° SSW 00:32:09 10° SE visible
02 Oct - 02:31:07 10° WSW 02:35:45 15° SW 02:39:19 10° S night (unlit)
02 Oct - 16:15:31 10° S 16:26:47 18° SE 16:37:30 10° E daylight
02 Oct - 18:23:32 10° SW 18:41:16 42° SSE 18:55:12 10° E daylight
02 Oct - 20:38:02 10° WSW 20:56:25 61° S 21:08:09 10° E visible
02 Oct - 22:55:19 10° W 23:10:39 59° SSW 23:19:23 10° ESE visible
03 Oct - 01:13:06 10° W 01:22:36 30° SW 01:28:36 10° SSE visible
03 Oct - 17:09:20 10° SSW 17:25:17 32° SE 17:39:30 10° E daylight
03 Oct - 19:21:29 10° SW 19:40:24 55° SSE 19:54:00 10° E visible
03 Oct - 21:37:49 10° WSW 21:55:29 65° S 22:06:06 10° ESE visible
